Voltar ao catálogo

STARLINK-30900

AtivoComunicaçõesVLEO
NORAD 58423·PAYLOAD·🇺🇸 United States

Lançado Nov 22, 2023 de Cape Canaveral Space Force Station

Loading…

Próximas Passagens (próximas 24 horas)

TLE

AtualizadoSource: CelesTrak SupGP

Época: Sep 15, 2026, 02:37 UTC

1 58423C 23180X   26258.10951389 -.00065108  00000+0 -23580-2 0  2584
2 58423  43.0006  62.6261 0001523 263.7199 208.8758 15.27613070    19

Acompanhe STARLINK-30900 em tempo real com AllMySat

Download on the App Store